AAL7510 VHHH-VHHX

Flight info

Callsign AAL7510
Flight time 0h -1m
Altitude 6000
Route RAMEN DCT CH/N0271F050
Aircraft A310/H-SDFGHIM1RTUWXY/LB1

Departure

Time 2026-05-05 05:28
Airport Hong Kong International Airport (VHHH)

Arrival

Time 2026-05-05 05:26
Airport Hong Kong International Airport Kai Tak (VHHX)
Time Latitude Longitude Altitude Speed Heading
2026-05-05 05:26 22.32486 114.19304 33 ft 0 kts 134°
2026-05-05 05:27 22.32367 114.19441 33 ft 65 kts 133°
2026-05-05 05:27 22.31469 114.20339 432 ft 104 kts 155°
2026-05-05 05:28 22.30712 114.20259 707 ft 119 kts 191°
2026-05-05 05:28 22.29887 114.20031 989 ft 124 kts 194°
2026-05-05 05:28 22.29116 114.19752 1461 ft 113 kts 194°
2026-05-05 05:28 22.28352 114.19483 1758 ft 118 kts 189°
2026-05-05 05:29 22.27587 114.19006 1734 ft 141 kts 227°
2026-05-05 05:29 22.27148 114.18039 1943 ft 145 kts 253°
2026-05-05 05:29 22.27201 114.16905 1901 ft 163 kts 287°
2026-05-05 05:29 22.27596 114.15731 1732 ft 169 kts 295°
2026-05-05 05:30 22.28396 114.14892 1693 ft 164 kts 333°
2026-05-05 05:30 22.29497 114.14501 1462 ft 165 kts 348°
2026-05-05 05:30 22.30419 114.14899 1575 ft 144 kts 34°
2026-05-05 05:30 22.31387 114.15418 1196 ft 163 kts 41°
2026-05-05 05:31 22.32124 114.16290 987 ft 149 kts 55°
2026-05-05 05:31 22.32699 114.17058 791 ft 114 kts 49°
2026-05-05 05:31 22.33062 114.17725 621 ft 94 kts 78°
2026-05-05 05:31 22.33058 114.18409 459 ft 93 kts 101°
2026-05-05 05:32 22.32726 114.19023 255 ft 96 kts 126°
2026-05-05 05:32 22.32266 114.19541 96 ft 89 kts 128°
2026-05-05 05:32 22.31889 114.19965 34 ft 65 kts 126°
2026-05-05 05:32 22.31653 114.20240 32 ft 37 kts 132°
2026-05-05 05:33 22.31598 114.20302 32 ft 0 kts 127°
2026-05-05 05:33 22.31583 114.20339 32 ft 9 kts 81°
2026-05-05 05:33 22.31596 114.20354 32 ft 0 kts 37°
2026-05-05 05:34 22.31598 114.20357 32 ft 4 kts 57°
2026-05-05 05:34 22.31529 114.20497 35 ft 56 kts 149°
2026-05-05 05:34 22.31831 114.20029 32 ft 26 kts 139°
2026-05-05 05:34 22.31595 114.20410 57 ft 84 kts 113°
2026-05-05 05:35 22.31171 114.20968 101 ft 97 kts 114°
2026-05-05 05:35 22.30851 114.21195 110 ft 85 kts 296°
2026-05-05 05:35 22.30996 114.21068 31 ft 0 kts 320°